Regional Weather Roundup
Issued by NWS

Home | Current Version | Previous Version | Graphics & Text | Print | Product List | Glossary On
Versions: 1 2 3 4 5 6 7 8 9 10 11 12 13 14 15 16 17 18 19 20 21 22 23 24 25 26 27 28 29 30 31 32 33 34 35 36 37 38 39 40 41 42 43 44 45 46 47 48 49 50
000
ASUS43 KOAX 020110
RWRNE

WEATHER ROUNDUP FOR NEBRASKA
NATIONAL WEATHER SERVICE OMAHA NE
800 PM CDT WED OCT 01 2014

NOTES: SATELLITE DATA IS BEING USED TO AUGMENT CLOUD COVER ABOVE
       12000 FEET.
       "FAIR" INDICATES FEW OR NO CLOUDS BELOW 12,000 FEET WITH NO
       SIGNIFICANT WEATHER AND/OR OBSTRUCTIONS TO VISIBILITY.

  * THESE STATIONS DO NOT REPORT WEATHER SUCH AS RAIN...SNOW OR FOG.

NEZ001>004-019>022-054>056-020200-
NEBRASKA PANHANDLE

CITY           SKY/WX    TMP DP  RH WIND       PRES   REMARKS
SCOTTSBLUFF    LGT RAIN  48  45  89 NW9       29.98R
ALLIANCE       LGT RAIN  50  46  86 NW9       29.96R
CHADRON        CLOUDY    52  47  83 NE5       29.96R
KIMBALL        HVY RAIN  44  43  95 NW8       30.00R
SIDNEY         LGT RAIN  50  46  86 NW23G32   29.96R
$$

NEZ057>060-069>072-079>082-020200-
SOUTHWEST NEBRASKA

CITY           SKY/WX    TMP DP  RH WIND       PRES   REMARKS
NORTH PLATTE   PTCLDY    60  48  64 NE5       29.79R
IMPERIAL       PTCLDY    61  45  55 E9        29.79S
LEXINGTON      PTCLDY    64  55  71 NE5       29.78R
MCCOOK         CLEAR     69  44  40 CALM      29.77R
OGALLALA       MOCLDY    62  51  67 N3        29.80R
$$

NEZ005>010-023>029-035>040-094-020200-
NORTH CENTRAL NEBRASKA

CITY           SKY/WX    TMP DP  RH WIND       PRES   REMARKS
VALENTINE      MOCLDY    60  46  59 N12       29.86R
AINSWORTH      PTCLDY    58  47  67 N8        29.84R
BROKEN BOW     CLOUDY    67  50  54 NE7       29.80R
O`NEILL        PTCLDY    62  53  73 N7        29.83R
ORD            PTCLDY    63  50  62 NE5       29.78R
THEDFORD       MOCLDY    63  49  61 NE6       29.84R
$$

NEZ041-046>049-061>064-073>077-083>087-020200-
SOUTH CENTRAL NEBRASKA

CITY           SKY/WX    TMP DP  RH WIND       PRES   REMARKS
GRAND ISLAND   CLEAR     64  56  75 NE8       29.76S
AURORA         PTCLDY    68  57  68 CALM      29.77R
HASTINGS       TSTM      69  58  67 E8        29.75S
HEBRON         PTCLDY    68  59  73 E5        29.75R
HOLDREGE       PTCLDY    64  55  73 CALM      29.76S
KEARNEY *        N/A     64  54  68 NE7       29.77R VSB<1/4
YORK           MOCLDY    66  59  77 E7        29.77R
$$

NEZ011>018-030>034-042>045-020200-
NORTHEAST NEBRASKA

CITY           SKY/WX    TMP DP  RH WIND       PRES   REMARKS
NORFOLK        CLEAR     66  53  63 NW6       29.78R
ALBION         DRIZZLE   64  52  64 N7        29.79R
BLAIR          PTCLDY    67  63  85 E5        29.77R
COLUMBUS *     MOCLDY    68  57  68 CALM      29.78R
FREMONT        PTCLDY    69  63  80 SE5       29.77R
TEKAMAH        MOCLDY    69  61  75 SE6       29.75R
WAYNE          CLEAR     61  56  84 NW3       29.78R
$$

NEZ050>053-065>068-078-088>093-020200-
SOUTHEAST NEBRASKA

CITY           SKY/WX    TMP DP  RH WIND       PRES   REMARKS
LINCOLN        PTCLDY    67  61  81 NE7       29.77R
OMAHA EPPLEY   MOCLDY    69  64  84 CALM      29.76R
BEATRICE       MOCLDY    67  60  78 NE6       29.75R
FALLS CITY     MOCLDY    73  65  75 E7        29.73R
NEBRASKA CITY  CLEAR     68  61  78 N5        29.75S
PLATTSMOUTH      N/A     66  61  85 CALM      29.77R
$$

NEZ044-045-051>053-067-020200-
OMAHA AREA

CITY           SKY/WX    TMP DP  RH WIND       PRES   REMARKS
OMAHA EPPLEY   MOCLDY    69  64  84 CALM      29.76R
BLAIR          PTCLDY    67  63  85 E5        29.77R
FREMONT        PTCLDY    69  63  80 SE5       29.77R
MILLARD        CLEAR     66  64  92 CALM      29.76R
OFFUTT AFB     PTCLDY    67  67  99 NE3       29.76R
PLATTSMOUTH      N/A     66  61  85 CALM      29.77R
WAHOO          FAIR      67  61  81 SE3       29.77R
$$



USA.gov is the U.S. government's official web portal to all federal, state and local government web resources and services.